Time,TemperatureF,DewpointF,PressureIn,WindDirection,WindDirectionDegrees,WindSpeedMPH,WindSpeedGustMPH,Humidity,HourlyPrecipIn,Conditions,Clouds,dailyrainin,SoftwareType,DateUTC
2013-09-26 00:00:00,58.5,38.3,29.06,East,86,0.0,3.1,47,0.00,,---,0.00,VWS V14.01,2013-09-26 04:00:00,
2013-09-26 00:01:00,58.5,38.3,29.06,East,86,0.0,2.7,47,0.00,,---,0.00,VWS V14.01,2013-09-26 04:01:00,
2013-09-26 00:02:00,58.3,38.7,29.06,East,98,3.6,3.6,48,0.00,,---,0.00,VWS V14.01,2013-09-26 04:02:00,
2013-09-26 00:03:00,58.3,38.7,29.06,East,93,3.1,3.6,48,0.00,,---,0.00,VWS V14.01,2013-09-26 04:03:00,
2013-09-26 00:04:00,58.1,38.5,29.06,East,90,3.1,3.6,48,0.00,,---,0.00,VWS V14.01,2013-09-26 04:04:00,
2013-09-26 00:05:00,58.1,38.5,29.06,East,90,0.0,3.6,48,0.00,,---,0.00,VWS V14.01,2013-09-26 04:05:00,
2013-09-26 00:06:00,58.1,39.1,29.06,ESE,113,3.1,3.6,49,0.00,,---,0.00,VWS V14.01,2013-09-26 04:06:00,
2013-09-26 00:07:00,58.1,39.1,29.06,East,97,0.0,3.6,49,0.00,,---,0.00,VWS V14.01,2013-09-26 04:07:00,
2013-09-26 00:08:00,58.1,39.6,29.06,ENE,75,3.6,3.6,50,0.00,,---,0.00,VWS V14.01,2013-09-26 04:08:00,
2013-09-26 00:09:00,58.1,39.6,29.06,East,80,0.0,4.0,50,0.00,,---,0.00,VWS V14.01,2013-09-26 04:09:00,
2013-09-26 00:10:00,58.1,39.6,29.06,East,80,0.0,0.0,50,0.00,,---,0.00,VWS V14.01,2013-09-26 04:10:00,
2013-09-26 00:11:00,57.9,39.4,29.06,East,80,0.0,0.0,50,0.00,,---,0.00,VWS V14.01,2013-09-26 04:11:00,
2013-09-26 00:12:00,57.9,39.4,29.06,East,99,0.0,0.0,50,0.00,,---,0.00,VWS V14.01,2013-09-26 04:12:00,
2013-09-26 00:13:00,57.9,39.4,29.06,ENE,77,0.0,0.0,50,0.00,,---,0.00,VWS V14.01,2013-09-26 04:13:00,
2013-09-26 00:14:00,57.9,39.4,29.06,ENE,75,3.6,4.9,50,0.00,,---,0.00,VWS V14.01,2013-09-26 04:14:00,
2013-09-26 00:15:00,57.9,39.4,29.06,East,81,0.0,4.5,50,0.00,,---,0.00,VWS V14.01,2013-09-26 04:15:00,
2013-09-26 00:16:00,57.7,39.8,29.06,East,87,3.1,3.6,51,0.00,,---,0.00,VWS V14.01,2013-09-26 04:16:00,
2013-09-26 00:17:00,57.7,39.8,29.06,East,86,0.0,3.1,51,0.00,,---,0.00,VWS V14.01,2013-09-26 04:17:00,
2013-09-26 00:18:00,57.7,39.8,29.06,ESE,103,0.0,0.0,51,0.00,,---,0.00,VWS V14.01,2013-09-26 04:18:00,
2013-09-26 00:19:00,57.7,39.8,29.06,East,99,3.1,4.5,51,0.00,,---,0.00,VWS V14.01,2013-09-26 04:19:00,
2013-09-26 00:20:00,57.7,39.8,29.06,East,99,2.7,3.1,51,0.00,,---,0.00,VWS V14.01,2013-09-26 04:20:00,
2013-09-26 00:21:00,57.7,39.8,29.06,East,93,4.0,4.0,51,0.00,,---,0.00,VWS V14.01,2013-09-26 04:21:00,
2013-09-26 00:22:00,57.7,39.8,29.06,East,93,3.1,4.9,51,0.00,,---,0.00,VWS V14.01,2013-09-26 04:22:00,
2013-09-26 00:23:00,57.7,39.8,29.06,ENE,70,3.1,3.6,51,0.00,,---,0.00,VWS V14.01,2013-09-26 04:23:00,
2013-09-26 00:24:00,57.9,39.9,29.06,East,90,3.6,4.5,51,0.00,,---,0.00,VWS V14.01,2013-09-26 04:24:00,
2013-09-26 00:25:00,57.7,39.8,29.06,ESE,105,3.1,3.6,51,0.00,,---,0.00,VWS V14.01,2013-09-26 04:25:00,
2013-09-26 00:26:00,57.7,39.8,29.06,ESE,107,3.1,3.6,51,0.00,,---,0.00,VWS V14.01,2013-09-26 04:26:00,
2013-09-26 00:27:00,57.7,39.8,29.06,East,91,3.1,4.0,51,0.00,,---,0.00,VWS V14.01,2013-09-26 04:27:00,
2013-09-26 00:28:00,57.7,39.8,29.06,ESE,105,3.6,4.5,51,0.00,,---,0.00,VWS V14.01,2013-09-26 04:28:00,
2013-09-26 00:29:00,57.7,39.8,29.06,ESE,102,2.7,4.0,51,0.00,,---,0.00,VWS V14.01,2013-09-26 04:29:00,
2013-09-26 00:30:00,57.7,39.8,29.06,ESE,115,3.1,4.5,51,0.00,,---,0.00,VWS V14.01,2013-09-26 04:30:00,
2013-09-26 00:31:00,57.7,39.8,29.06,East,86,3.1,3.6,51,0.00,,---,0.00,VWS V14.01,2013-09-26 04:31:00,
2013-09-26 00:32:00,57.7,39.8,29.06,East,101,0.0,4.9,51,0.00,,---,0.00,VWS V14.01,2013-09-26 04:32:00,
2013-09-26 00:33:00,57.7,39.8,29.06,East,101,2.7,3.6,51,0.00,,---,0.00,VWS V14.01,2013-09-26 04:33:00,
2013-09-26 00:34:00,57.6,39.6,29.06,East,101,2.7,2.7,51,0.00,,---,0.00,VWS V14.01,2013-09-26 04:34:00,
2013-09-26 00:35:00,57.6,39.6,29.06,East,90,3.6,3.6,51,0.00,,---,0.00,VWS V14.01,2013-09-26 04:35:00,
2013-09-26 00:36:00,57.6,39.6,29.06,ESE,109,3.1,4.5,51,0.00,,---,0.00,VWS V14.01,2013-09-26 04:36:00,
2013-09-26 00:37:00,57.6,39.6,29.06,East,87,2.7,3.6,51,0.00,,---,0.00,VWS V14.01,2013-09-26 04:37:00,
2013-09-26 00:38:00,57.4,39.4,29.06,East,87,0.0,2.7,51,0.00,,---,0.00,VWS V14.01,2013-09-26 04:38:00,
2013-09-26 00:39:00,57.4,39.4,29.06,East,87,0.0,0.0,51,0.00,,---,0.00,VWS V14.01,2013-09-26 04:39:00,
2013-09-26 00:40:00,57.4,39.4,29.06,ENE,72,3.1,4.0,51,0.00,,---,0.00,VWS V14.01,2013-09-26 04:40:00,
2013-09-26 00:41:00,57.2,39.2,29.06,ENE,72,0.0,3.1,51,0.00,,---,0.00,VWS V14.01,2013-09-26 04:41:00,
2013-09-26 00:42:00,57.2,39.8,29.06,ENE,72,0.0,0.0,52,0.00,,---,0.00,VWS V14.01,2013-09-26 04:42:00,
2013-09-26 00:43:00,57.2,39.8,29.06,ENE,72,0.0,0.0,52,0.00,,---,0.00,VWS V14.01,2013-09-26 04:43:00,
2013-09-26 00:44:00,57.0,39.6,29.06,ENE,72,0.0,0.0,52,0.00,,---,0.00,VWS V14.01,2013-09-26 04:44:00,
2013-09-26 00:45:00,57.0,39.6,29.06,ESE,105,2.7,3.1,52,0.00,,---,0.00,VWS V14.01,2013-09-26 04:45:00,
2013-09-26 00:46:00,57.0,39.6,29.06,ESE,105,0.0,3.1,52,0.00,,---,0.00,VWS V14.01,2013-09-26 04:46:00,
2013-09-26 00:47:00,56.8,39.4,29.06,ESE,105,0.0,2.7,52,0.00,,---,0.00,VWS V14.01,2013-09-26 04:47:00,
2013-09-26 00:48:00,56.8,39.4,29.06,East,96,2.7,2.7,52,0.00,,---,0.00,VWS V14.01,2013-09-26 04:48:00,
2013-09-26 00:49:00,56.8,39.4,29.06,East,92,0.0,3.1,52,0.00,,---,0.00,VWS V14.01,2013-09-26 04:49:00,
2013-09-26 00:50:00,56.7,39.7,29.06,East,92,0.0,0.0,53,0.00,,---,0.00,VWS V14.01,2013-09-26 04:50:00,
2013-09-26 00:51:00,56.7,39.7,29.06,East,92,0.0,0.0,53,0.00,,---,0.00,VWS V14.01,2013-09-26 04:51:00,
2013-09-26 00:52:00,56.7,39.7,29.06,East,92,0.0,0.0,53,0.00,,---,0.00,VWS V14.01,2013-09-26 04:52:00,
2013-09-26 00:53:00,56.5,40.0,29.06,East,92,0.0,0.0,54,0.00,,---,0.00,VWS V14.01,2013-09-26 04:53:00,
2013-09-26 00:54:00,56.5,40.0,29.06,East,92,0.0,0.0,54,0.00,,---,0.00,VWS V14.01,2013-09-26 04:54:00,
2013-09-26 00:55:00,56.5,40.0,29.06,East,89,2.7,3.6,54,0.00,,---,0.00,VWS V14.01,2013-09-26 04:55:00,
2013-09-26 00:56:00,56.3,40.4,29.06,East,89,0.0,2.7,55,0.00,,---,0.00,VWS V14.01,2013-09-26 04:56:00,
2013-09-26 00:57:00,55.2,48.5,28.91,East,98,0.0,0.0,78,0.00,,---,0.00,VWS V14.01,2013-09-26 04:57:00,
2013-09-26 00:58:00,56.3,40.4,29.06,East,89,2.7,3.1,55,0.00,,---,0.00,VWS V14.01,2013-09-26 04:58:00,
2013-09-26 00:59:00,56.3,40.8,29.06,East,89,2.7,3.1,56,0.00,,---,0.00,VWS V14.01,2013-09-26 04:59:00,
2013-09-26 01:00:00,56.3,40.8,29.06,East,89,2.7,3.1,56,0.00,,---,0.00,VWS V14.01,2013-09-26 05:00:00,
2013-09-26 01:01:00,56.3,41.3,29.06,East,89,0.0,2.7,57,0.00,,---,0.00,VWS V14.01,2013-09-26 05:01:00,
2013-09-26 01:02:00,56.3,41.3,29.06,East,89,0.0,0.0,57,0.00,,---,0.00,VWS V14.01,2013-09-26 05:02:00,
2013-09-26 01:03:00,56.3,41.3,29.06,East,89,0.0,0.0,57,0.00,,---,0.00,VWS V14.01,2013-09-26 05:03:00,
2013-09-26 01:04:00,56.3,41.7,29.06,East,89,0.0,0.0,58,0.00,,---,0.00,VWS V14.01,2013-09-26 05:04:00,
2013-09-26 01:05:00,54.9,48.1,28.91,East,98,0.0,0.0,78,0.00,,---,0.00,VWS V14.01,2013-09-26 05:05:00,
2013-09-26 01:06:00,56.1,41.6,29.06,East,89,0.0,0.0,58,0.00,,---,0.00,VWS V14.01,2013-09-26 05:06:00,
2013-09-26 01:07:00,56.1,42.0,29.06,East,89,2.7,3.1,59,0.00,,---,0.00,VWS V14.01,2013-09-26 05:07:00,
2013-09-26 01:08:00,56.1,42.0,29.06,East,89,3.1,3.1,59,0.00,,---,0.00,VWS V14.01,2013-09-26 05:08:00,
2013-09-26 01:09:00,56.1,42.0,29.06,East,89,0.0,3.1,59,0.00,,---,0.00,VWS V14.01,2013-09-26 05:09:00,
2013-09-26 01:10:00,56.1,42.0,29.06,East,89,0.0,0.0,59,0.00,,---,0.00,VWS V14.01,2013-09-26 05:10:00,
2013-09-26 01:11:00,55.9,41.8,29.06,East,89,0.0,0.0,59,0.00,,---,0.00,VWS V14.01,2013-09-26 05:11:00,
2013-09-26 01:12:00,55.9,41.8,29.06,East,89,0.0,0.0,59,0.00,,---,0.00,VWS V14.01,2013-09-26 05:12:00,
2013-09-26 01:13:00,55.9,41.8,29.06,East,89,0.0,0.0,59,0.00,,---,0.00,VWS V14.01,2013-09-26 05:13:00,
2013-09-26 01:14:00,55.9,41.8,29.06,East,89,0.0,0.0,59,0.00,,---,0.00,VWS V14.01,2013-09-26 05:14:00,
2013-09-26 01:15:00,55.9,42.3,29.06,East,89,0.0,0.0,60,0.00,,---,0.00,VWS V14.01,2013-09-26 05:15:00,
2013-09-26 01:16:00,55.8,42.1,29.06,East,89,0.0,0.0,60,0.00,,---,0.00,VWS V14.01,2013-09-26 05:16:00,
2013-09-26 01:17:00,55.8,42.1,29.06,East,89,0.0,0.0,60,0.00,,---,0.00,VWS V14.01,2013-09-26 05:17:00,
2013-09-26 01:18:00,55.8,42.1,29.06,East,89,0.0,0.0,60,0.00,,---,0.00,VWS V14.01,2013-09-26 05:18:00,
2013-09-26 01:19:00,55.8,42.5,29.06,East,89,0.0,0.0,61,0.00,,---,0.00,VWS V14.01,2013-09-26 05:19:00,
2013-09-26 01:20:00,55.8,42.5,29.06,East,89,0.0,0.0,61,0.00,,---,0.00,VWS V14.01,2013-09-26 05:20:00,
2013-09-26 01:21:00,54.1,48.1,28.91,East,98,0.0,0.0,80,0.00,,---,0.00,VWS V14.01,2013-09-26 05:21:00,
2013-09-26 01:22:00,55.8,42.5,29.06,East,89,0.0,0.0,61,0.00,,---,0.00,VWS V14.01,2013-09-26 05:22:00,
2013-09-26 01:23:00,55.8,42.5,29.06,East,89,0.0,0.0,61,0.00,,---,0.00,VWS V14.01,2013-09-26 05:23:00,
2013-09-26 01:25:00,55.8,43.0,29.06,East,100,0.0,0.0,62,0.00,,---,0.00,VWS V14.01,2013-09-26 05:25:00,
2013-09-26 01:26:00,55.8,43.0,29.06,East,100,3.1,3.6,62,0.00,,---,0.00,VWS V14.01,2013-09-26 05:26:00,
2013-09-26 01:27:00,53.8,47.8,28.91,East,98,0.0,0.0,80,0.00,,---,0.00,VWS V14.01,2013-09-26 05:27:00,
2013-09-26 01:31:00,55.6,42.8,29.06,East,89,0.0,2.7,62,0.00,,---,0.00,VWS V14.01,2013-09-26 05:31:00,
2013-09-26 01:33:00,53.6,47.6,28.91,East,98,0.0,0.0,80,0.00,,---,0.00,VWS V14.01,2013-09-26 05:33:00,
2013-09-26 01:34:00,55.6,42.8,29.06,East,89,0.0,0.0,62,0.00,,---,0.00,VWS V14.01,2013-09-26 05:34:00,
2013-09-26 01:35:00,55.6,42.8,29.06,East,89,0.0,0.0,62,0.00,,---,0.00,VWS V14.01,2013-09-26 05:35:00,
2013-09-26 01:37:00,55.6,43.2,29.06,East,89,0.0,0.0,63,0.00,,---,0.00,VWS V14.01,2013-09-26 05:37:00,
2013-09-26 01:38:00,53.4,47.4,28.91,East,98,0.0,0.0,80,0.00,,---,0.00,VWS V14.01,2013-09-26 05:38:00,
2013-09-26 01:41:00,55.4,43.0,29.06,ESE,104,0.0,0.0,63,0.00,,---,0.00,VWS V14.01,2013-09-26 05:41:00,
2013-09-26 01:44:00,53.2,47.6,28.91,East,98,0.0,0.0,81,0.00,,---,0.00,VWS V14.01,2013-09-26 05:44:00,
2013-09-26 01:46:00,55.4,43.0,29.06,ESE,104,0.0,0.0,63,0.00,,---,0.00,VWS V14.01,2013-09-26 05:46:00,
2013-09-26 01:47:00,55.2,42.9,29.06,ESE,104,0.0,0.0,63,0.00,,---,0.00,VWS V14.01,2013-09-26 05:47:00,
2013-09-26 01:48:00,55.2,42.9,29.06,ESE,104,0.0,0.0,63,0.00,,---,0.00,VWS V14.01,2013-09-26 05:48:00,
2013-09-26 01:49:00,53.2,47.6,28.91,East,98,0.0,0.0,81,0.00,,---,0.00,VWS V14.01,2013-09-26 05:49:00,
2013-09-26 01:54:00,53.1,47.7,28.91,East,98,0.0,0.0,82,0.00,,---,0.00,VWS V14.01,2013-09-26 05:54:00,
2013-09-26 01:56:00,55.0,43.1,29.06,ESE,104,0.0,0.0,64,0.00,,---,0.00,VWS V14.01,2013-09-26 05:56:00,
2013-09-26 01:59:00,53.1,47.7,28.91,East,98,0.0,0.0,82,0.00,,---,0.00,VWS V14.01,2013-09-26 05:59:00,
2013-09-26 02:00:00,54.9,43.3,29.06,ESE,104,0.0,0.0,65,0.00,,---,0.00,VWS V14.01,2013-09-26 06:00:00,
2013-09-26 02:03:00,54.9,43.3,29.06,ESE,104,0.0,0.0,65,0.00,,---,0.00,VWS V14.01,2013-09-26 06:03:00,
2013-09-26 02:04:00,52.7,47.7,28.91,East,98,0.0,0.0,83,0.00,,---,0.00,VWS V14.01,2013-09-26 06:04:00,
2013-09-26 02:09:00,52.5,47.5,28.91,East,98,0.0,0.0,83,0.00,,---,0.00,VWS V14.01,2013-09-26 06:09:00,
2013-09-26 02:14:00,52.5,47.8,28.91,East,98,0.0,0.0,84,0.00,,---,0.00,VWS V14.01,2013-09-26 06:14:00,
2013-09-26 02:19:00,52.3,47.7,28.91,East,98,0.0,0.0,84,0.00,,---,0.00,VWS V14.01,2013-09-26 06:19:00,
2013-09-26 02:24:00,52.0,47.3,28.91,East,98,0.0,0.0,84,0.00,,---,0.00,VWS V14.01,2013-09-26 06:24:00,
2013-09-26 02:29:00,51.8,47.1,28.91,East,98,0.0,0.0,84,0.00,,---,0.00,VWS V14.01,2013-09-26 06:29:00,
2013-09-26 02:35:00,51.8,47.4,28.91,East,98,0.0,0.0,85,0.00,,---,0.00,VWS V14.01,2013-09-26 06:35:00,
2013-09-26 02:42:00,51.8,47.4,28.91,East,98,0.0,0.0,85,0.00,,---,0.00,VWS V14.01,2013-09-26 06:42:00,
2013-09-26 02:47:00,51.6,47.3,28.91,East,98,0.0,0.0,85,0.00,,---,0.00,VWS V14.01,2013-09-26 06:47:00,
2013-09-26 02:54:00,51.3,46.9,28.91,East,98,0.0,0.0,85,0.00,,---,0.00,VWS V14.01,2013-09-26 06:54:00,
2013-09-26 03:00:00,50.9,46.6,28.91,East,98,0.0,0.0,85,0.00,,---,0.00,VWS V14.01,2013-09-26 07:00:00,
2013-09-26 03:05:00,51.1,46.7,28.91,East,98,0.0,0.0,85,0.00,,---,0.00,VWS V14.01,2013-09-26 07:05:00,
2013-09-26 03:10:00,50.7,46.7,28.91,East,98,0.0,0.0,86,0.00,,---,0.00,VWS V14.01,2013-09-26 07:10:00,
2013-09-26 03:15:00,50.2,46.2,28.91,East,98,0.0,0.0,86,0.00,,---,0.00,VWS V14.01,2013-09-26 07:15:00,
2013-09-26 03:20:00,50.2,46.2,28.91,East,98,0.0,0.0,86,0.00,,---,0.00,VWS V14.01,2013-09-26 07:20:00,
2013-09-26 03:26:00,49.8,45.8,28.91,East,98,0.0,0.0,86,0.00,,---,0.00,VWS V14.01,2013-09-26 07:26:00,
2013-09-26 03:31:00,50.0,46.0,28.94,East,98,0.0,0.0,86,0.00,,---,0.00,VWS V14.01,2013-09-26 07:31:00,
2013-09-26 03:36:00,49.8,45.8,28.94,East,98,0.0,0.0,86,0.00,,---,0.00,VWS V14.01,2013-09-26 07:36:00,
2013-09-26 03:41:00,49.8,45.8,28.94,East,98,0.0,0.0,86,0.00,,---,0.00,VWS V14.01,2013-09-26 07:41:00,
2013-09-26 03:47:00,49.8,45.8,28.94,East,98,0.0,0.0,86,0.00,,---,0.00,VWS V14.01,2013-09-26 07:47:00,
2013-09-26 03:52:00,49.6,45.6,28.94,East,98,0.0,0.0,86,0.00,,---,0.00,VWS V14.01,2013-09-26 07:52:00,
2013-09-26 03:54:00,51.8,44.8,29.06,ENE,74,0.0,0.0,77,0.00,,---,0.00,VWS V14.01,2013-09-26 07:54:00,
2013-09-26 03:57:00,49.6,45.6,28.94,East,98,0.0,0.0,86,0.00,,---,0.00,VWS V14.01,2013-09-26 07:57:00,
2013-09-26 03:58:00,51.8,44.8,29.06,East,89,0.0,0.0,77,0.00,,---,0.00,VWS V14.01,2013-09-26 07:58:00,
2013-09-26 04:00:00,51.6,44.7,29.06,East,89,0.0,0.0,77,0.00,,---,0.00,VWS V14.01,2013-09-26 08:00:00,
2013-09-26 04:02:00,49.8,46.1,28.94,East,98,0.0,0.0,87,0.00,,---,0.00,VWS V14.01,2013-09-26 08:02:00,
2013-09-26 04:07:00,49.8,46.1,28.94,East,98,0.0,0.0,87,0.00,,---,0.00,VWS V14.01,2013-09-26 08:07:00,
2013-09-26 04:13:00,49.5,45.8,28.94,East,98,0.0,0.0,87,0.00,,---,0.00,VWS V14.01,2013-09-26 08:13:00,
2013-09-26 04:17:00,51.1,44.1,29.06,East,89,0.0,0.0,77,0.00,,---,0.00,VWS V14.01,2013-09-26 08:17:00,
2013-09-26 04:18:00,49.1,45.4,28.94,East,98,0.0,0.0,87,0.00,,---,0.00,VWS V14.01,2013-09-26 08:18:00,
2013-09-26 04:22:00,50.7,43.8,29.06,East,89,0.0,0.0,77,0.00,,---,0.00,VWS V14.01,2013-09-26 08:22:00,
2013-09-26 04:23:00,49.1,45.4,28.94,East,98,0.0,0.0,87,0.00,,---,0.00,VWS V14.01,2013-09-26 08:23:00,
2013-09-26 04:28:00,50.5,43.6,29.06,East,89,0.0,0.0,77,0.00,,---,0.00,VWS V14.01,2013-09-26 08:28:00,
2013-09-26 04:29:00,49.1,45.4,28.94,East,98,0.0,0.0,87,0.00,,---,0.00,VWS V14.01,2013-09-26 08:29:00,
2013-09-26 04:31:00,50.4,43.4,29.06,East,89,0.0,0.0,77,0.00,,---,0.00,VWS V14.01,2013-09-26 08:31:00,
2013-09-26 04:33:00,50.4,43.4,29.06,East,89,0.0,0.0,77,0.00,,---,0.00,VWS V14.01,2013-09-26 08:33:00,
2013-09-26 04:36:00,49.1,45.7,28.94,East,98,0.0,0.0,88,0.00,,---,0.00,VWS V14.01,2013-09-26 08:36:00,
2013-09-26 04:40:00,50.0,43.4,29.06,East,89,0.0,0.0,78,0.00,,---,0.00,VWS V14.01,2013-09-26 08:40:00,
2013-09-26 04:41:00,49.1,45.7,28.94,East,98,0.0,0.0,88,0.00,,---,0.00,VWS V14.01,2013-09-26 08:41:00,
2013-09-26 04:48:00,48.9,45.5,28.94,East,98,0.0,0.0,88,0.00,,---,0.00,VWS V14.01,2013-09-26 08:48:00,
2013-09-26 04:52:00,49.6,43.1,29.09,East,89,0.0,0.0,78,0.00,,---,0.00,VWS V14.01,2013-09-26 08:52:00,
2013-09-26 04:53:00,49.1,45.7,28.94,East,98,0.0,0.0,88,0.00,,---,0.00,VWS V14.01,2013-09-26 08:53:00,
2013-09-26 04:58:00,49.3,45.9,28.94,East,98,0.0,0.0,88,0.00,,---,0.00,VWS V14.01,2013-09-26 08:58:00,
2013-09-26 04:59:00,49.6,43.4,29.09,East,89,0.0,0.0,79,0.00,,---,0.00,VWS V14.01,2013-09-26 08:59:00,
2013-09-26 05:01:00,49.6,43.4,29.09,East,89,0.0,0.0,79,0.00,,---,0.00,VWS V14.01,2013-09-26 09:01:00,
2013-09-26 05:03:00,49.3,45.9,28.94,East,98,0.0,0.0,88,0.00,,---,0.00,VWS V14.01,2013-09-26 09:03:00,
2013-09-26 05:04:00,49.5,43.2,29.09,East,89,0.0,0.0,79,0.00,,---,0.00,VWS V14.01,2013-09-26 09:04:00,
2013-09-26 05:08:00,49.5,46.4,28.94,East,98,0.0,0.0,89,0.00,,---,0.00,VWS V14.01,2013-09-26 09:08:00,
2013-09-26 05:13:00,49.6,46.5,28.94,East,98,0.0,0.0,89,0.00,,---,0.00,VWS V14.01,2013-09-26 09:13:00,
2013-09-26 05:18:00,49.8,46.7,28.94,East,98,0.0,0.0,89,0.00,,---,0.00,VWS V14.01,2013-09-26 09:18:00,
2013-09-26 05:23:00,49.6,46.5,28.94,East,98,0.0,0.0,89,0.00,,---,0.00,VWS V14.01,2013-09-26 09:23:00,
2013-09-26 05:28:00,49.5,46.4,28.94,East,98,0.0,0.0,89,0.00,,---,0.00,VWS V14.01,2013-09-26 09:28:00,
2013-09-26 05:33:00,49.5,46.4,28.94,East,98,0.0,0.0,89,0.00,,---,0.00,VWS V14.01,2013-09-26 09:33:00,
2013-09-26 05:37:00,49.3,44.3,29.09,East,84,2.7,3.1,83,0.00,,---,0.00,VWS V14.01,2013-09-26 09:37:00,
2013-09-26 05:38:00,49.8,47.0,28.94,East,98,0.0,0.0,90,0.00,,---,0.00,VWS V14.01,2013-09-26 09:38:00,
2013-09-26 05:41:00,49.5,44.8,29.09,East,96,0.0,3.6,84,0.00,,---,0.00,VWS V14.01,2013-09-26 09:41:00,
2013-09-26 05:44:00,50.5,47.7,28.94,East,84,0.0,0.0,90,0.00,,---,0.00,VWS V14.01,2013-09-26 09:44:00,
2013-09-26 05:48:00,49.5,45.2,29.09,East,92,0.0,0.0,85,0.00,,---,0.00,VWS V14.01,2013-09-26 09:48:00,
2013-09-26 05:49:00,50.7,48.2,28.94,East,84,0.0,0.0,91,0.00,,---,0.00,VWS V14.01,2013-09-26 09:49:00,
2013-09-26 05:54:00,50.9,48.4,28.94,East,84,0.0,0.0,91,0.00,,---,0.00,VWS V14.01,2013-09-26 09:54:00,
2013-09-26 05:59:00,51.1,48.5,28.94,East,84,0.0,0.0,91,0.00,,---,0.00,VWS V14.01,2013-09-26 09:59:00,
2013-09-26 06:04:00,51.1,48.5,28.94,East,84,0.0,0.0,91,0.00,,---,0.00,VWS V14.01,2013-09-26 10:04:00,
2013-09-26 06:09:00,51.1,48.5,28.94,East,84,0.0,0.0,91,0.00,,---,0.00,VWS V14.01,2013-09-26 10:09:00,
2013-09-26 06:14:00,51.1,48.5,28.94,East,84,0.0,0.0,91,0.00,,---,0.00,VWS V14.01,2013-09-26 10:14:00,
2013-09-26 06:19:00,51.1,48.5,28.97,East,84,0.0,0.0,91,0.00,,---,0.00,VWS V14.01,2013-09-26 10:19:00,
2013-09-26 06:24:00,51.1,48.8,28.97,East,84,0.0,0.0,92,0.00,,---,0.00,VWS V14.01,2013-09-26 10:24:00,
2013-09-26 06:29:00,51.1,48.8,28.97,East,84,0.0,0.0,92,0.00,,---,0.00,VWS V14.01,2013-09-26 10:29:00,
2013-09-26 06:35:00,51.3,49.0,28.97,East,84,0.0,0.0,92,0.00,,---,0.00,VWS V14.01,2013-09-26 10:35:00,
2013-09-26 06:40:00,51.3,49.0,28.97,East,84,0.0,0.0,92,0.00,,---,0.00,VWS V14.01,2013-09-26 10:40:00,
2013-09-26 06:45:00,51.3,49.0,28.97,East,84,0.0,0.0,92,0.00,,---,0.00,VWS V14.01,2013-09-26 10:45:00,
2013-09-26 06:50:00,51.4,49.2,28.97,East,84,0.0,0.0,92,0.00,,---,0.00,VWS V14.01,2013-09-26 10:50:00,
2013-09-26 06:55:00,51.6,49.4,28.97,East,84,0.0,0.0,92,0.00,,---,0.00,VWS V14.01,2013-09-26 10:55:00,
2013-09-26 07:00:00,51.6,49.4,28.97,East,84,0.0,0.0,92,0.00,,---,0.00,VWS V14.01,2013-09-26 11:00:00,
2013-09-26 07:05:00,51.8,49.5,28.97,East,84,0.0,0.0,92,0.00,,---,0.00,VWS V14.01,2013-09-26 11:05:00,
2013-09-26 07:10:00,52.0,50.0,28.97,East,93,0.0,0.0,93,0.00,,---,0.00,VWS V14.01,2013-09-26 11:10:00,
2013-09-26 07:15:00,52.2,50.2,28.97,ENE,58,0.0,2.7,93,0.00,,---,0.00,VWS V14.01,2013-09-26 11:15:00,
2013-09-26 07:20:00,52.3,50.4,28.97,ENE,73,0.0,0.0,93,0.00,,---,0.00,VWS V14.01,2013-09-26 11:20:00,
2013-09-26 07:25:00,52.3,50.4,28.97,ENE,73,0.0,0.0,93,0.00,,---,0.00,VWS V14.01,2013-09-26 11:25:00,
2013-09-26 07:30:00,52.3,50.4,28.97,East,91,0.0,2.7,93,0.00,,---,0.00,VWS V14.01,2013-09-26 11:30:00,
2013-09-26 07:35:00,52.5,50.8,28.97,East,90,0.0,0.0,94,0.00,,---,0.00,VWS V14.01,2013-09-26 11:35:00,
2013-09-26 07:40:00,52.3,50.7,28.97,East,90,0.0,0.0,94,0.00,,---,0.00,VWS V14.01,2013-09-26 11:40:00,
2013-09-26 07:45:00,52.5,50.8,28.97,East,90,0.0,0.0,94,0.00,,---,0.00,VWS V14.01,2013-09-26 11:45:00,
2013-09-26 07:50:00,52.5,50.8,28.97,East,90,0.0,0.0,94,0.00,,---,0.00,VWS V14.01,2013-09-26 11:50:00,
2013-09-26 07:55:00,52.5,50.8,28.97,ENE,67,3.6,4.5,94,0.00,,---,0.00,VWS V14.01,2013-09-26 11:55:00,
2013-09-26 08:00:00,52.7,51.0,28.97,ENE,66,0.0,0.0,94,0.00,,---,0.00,VWS V14.01,2013-09-26 12:00:00,
2013-09-26 08:05:00,52.9,51.2,29.00,ENE,66,0.0,0.0,94,0.00,,---,0.00,VWS V14.01,2013-09-26 12:05:00,
2013-09-26 08:10:00,52.9,51.2,29.00,East,98,3.6,3.6,94,0.00,,---,0.00,VWS V14.01,2013-09-26 12:10:00,
2013-09-26 08:15:00,52.9,51.2,29.00,ENE,76,0.0,0.0,94,0.00,,---,0.00,VWS V14.01,2013-09-26 12:15:00,
2013-09-26 08:20:00,52.9,51.2,29.00,East,81,2.7,4.5,94,0.00,,---,0.00,VWS V14.01,2013-09-26 12:20:00,
2013-09-26 08:25:00,53.1,51.4,29.00,ENE,78,0.0,0.0,94,0.00,,---,0.00,VWS V14.01,2013-09-26 12:25:00,
2013-09-26 08:30:00,53.4,51.7,29.00,ENE,77,0.0,0.0,94,0.00,,---,0.00,VWS V14.01,2013-09-26 12:30:00,
2013-09-26 08:35:00,53.8,52.4,29.00,ENE,75,3.1,3.1,95,0.00,,---,0.00,VWS V14.01,2013-09-26 12:35:00,
2013-09-26 08:40:00,54.0,52.6,29.00,East,88,0.0,3.1,95,0.00,,---,0.00,VWS V14.01,2013-09-26 12:40:00,
2013-09-26 08:45:00,54.1,52.7,29.00,East,90,0.0,0.0,95,0.00,,---,0.00,VWS V14.01,2013-09-26 12:45:00,
2013-09-26 08:50:00,54.3,52.9,29.00,East,90,0.0,0.0,95,0.00,,---,0.00,VWS V14.01,2013-09-26 12:50:00,
2013-09-26 08:55:00,54.3,52.9,29.00,East,90,0.0,0.0,95,0.00,,---,0.00,VWS V14.01,2013-09-26 12:55:00,
2013-09-26 09:01:00,54.7,53.3,29.00,East,96,2.7,4.0,95,0.00,,---,0.00,VWS V14.01,2013-09-26 13:01:00,
2013-09-26 09:06:00,54.7,53.3,29.00,East,85,0.0,0.0,95,0.00,,---,0.00,VWS V14.01,2013-09-26 13:06:00,
2013-09-26 09:11:00,55.0,53.6,29.00,ENE,78,3.1,3.1,95,0.00,,---,0.00,VWS V14.01,2013-09-26 13:11:00,
2013-09-26 09:17:00,55.4,54.0,29.00,ESE,108,0.0,0.0,95,0.00,,---,0.00,VWS V14.01,2013-09-26 13:17:00,
2013-09-26 09:22:00,56.1,54.7,29.00,ESE,109,0.0,4.0,95,0.00,,---,0.00,VWS V14.01,2013-09-26 13:22:00,
2013-09-26 09:28:00,56.3,54.9,29.00,East,92,4.0,4.9,95,0.00,,---,0.00,VWS V14.01,2013-09-26 13:28:00,
2013-09-26 09:33:00,57.0,55.6,29.00,ESE,105,4.0,5.4,95,0.00,,---,0.00,VWS V14.01,2013-09-26 13:33:00,
2013-09-26 09:38:00,57.0,55.3,29.00,ESE,107,5.8,6.7,94,0.00,,---,0.00,VWS V14.01,2013-09-26 13:38:00,
2013-09-26 09:44:00,58.3,55.4,29.00,East,91,3.6,4.5,90,0.00,,---,0.00,VWS V14.01,2013-09-26 13:44:00,
2013-09-26 09:49:00,59.0,53.5,29.00,East,94,4.0,5.4,82,0.00,,---,0.00,VWS V14.01,2013-09-26 13:49:00,
2013-09-26 09:54:00,60.1,51.0,29.00,East,99,0.0,0.0,72,0.00,,---,0.00,VWS V14.01,2013-09-26 13:54:00,
2013-09-26 09:59:00,61.3,51.1,29.00,East,90,0.0,0.0,69,0.00,,---,0.00,VWS V14.01,2013-09-26 13:59:00,
2013-09-26 10:04:00,62.1,48.5,29.03,SE,132,0.0,0.0,61,0.00,,---,0.00,VWS V14.01,2013-09-26 14:04:00,
2013-09-26 10:09:00,62.6,47.2,29.03,East,83,3.1,3.1,57,0.00,,---,0.00,VWS V14.01,2013-09-26 14:09:00,
2013-09-26 10:14:00,63.5,46.6,29.03,East,97,3.6,3.6,54,0.00,,---,0.00,VWS V14.01,2013-09-26 14:14:00,
2013-09-26 10:19:00,64.2,44.7,29.03,East,80,3.6,4.0,49,0.00,,---,0.00,VWS V14.01,2013-09-26 14:19:00,
2013-09-26 10:24:00,65.1,42.7,29.03,East,86,3.6,4.5,44,0.00,,---,0.00,VWS V14.01,2013-09-26 14:24:00,
2013-09-26 10:29:00,65.5,44.2,29.03,East,96,0.0,3.1,46,0.00,,---,0.00,VWS V14.01,2013-09-26 14:29:00,
2013-09-26 10:34:00,65.5,44.2,29.03,East,80,0.0,0.0,46,0.00,,---,0.00,VWS V14.01,2013-09-26 14:34:00,
2013-09-26 10:39:00,65.8,43.9,29.03,ENE,78,0.0,3.1,45,0.00,,---,0.00,VWS V14.01,2013-09-26 14:39:00,
2013-09-26 10:44:00,66.4,43.8,29.03,ESE,103,0.0,0.0,44,0.00,,---,0.00,VWS V14.01,2013-09-26 14:44:00,
2013-09-26 10:49:00,66.9,42.5,29.03,East,79,0.0,5.4,41,0.00,,---,0.00,VWS V14.01,2013-09-26 14:49:00,
2013-09-26 10:54:00,67.8,43.3,29.03,East,93,0.0,0.0,41,0.00,,---,0.00,VWS V14.01,2013-09-26 14:54:00,
2013-09-26 10:59:00,68.4,43.1,29.03,ESE,110,0.0,3.1,40,0.00,,---,0.00,VWS V14.01,2013-09-26 14:59:00,
2013-09-26 11:01:00,73.2,31.0,29.15,East,93,4.9,6.3,21,0.00,,---,0.00,VWS V14.01,2013-09-26 15:01:00,
2013-09-26 11:03:00,73.2,31.0,29.15,East,88,3.6,4.9,21,0.00,,---,0.00,VWS V14.01,2013-09-26 15:03:00,
2013-09-26 11:04:00,69.3,41.9,29.03,ESE,107,6.3,6.9,37,0.00,,---,0.00,VWS V14.01,2013-09-26 15:04:00,
2013-09-26 11:05:00,73.4,31.1,29.15,ENE,65,3.6,8.3,21,0.00,,---,0.00,VWS V14.01,2013-09-26 15:05:00,
2013-09-26 11:08:00,73.9,31.6,29.15,ENE,67,0.0,4.0,21,0.00,,---,0.00,VWS V14.01,2013-09-26 15:08:00,
2013-09-26 11:09:00,70.2,41.3,29.03,East,95,0.0,5.4,35,0.00,,---,0.00,VWS V14.01,2013-09-26 15:09:00,
2013-09-26 11:14:00,70.9,39.6,29.03,East,88,0.0,3.6,32,0.00,,---,0.00,VWS V14.01,2013-09-26 15:14:00,
2013-09-26 11:19:00,71.8,39.5,29.03,North,0,0.0,3.6,31,0.00,,---,0.00,VWS V14.01,2013-09-26 15:19:00,
2013-09-26 11:24:00,71.8,37.8,29.03,ESE,112,4.0,7.4,29,0.00,,---,0.00,VWS V14.01,2013-09-26 15:24:00,
2013-09-26 11:26:00,75.4,29.0,29.15,SE,124,4.9,5.4,18,0.00,,---,0.00,VWS V14.01,2013-09-26 15:26:00,
2013-09-26 11:29:00,72.7,37.7,29.03,East,88,3.1,4.5,28,0.00,,---,0.00,VWS V14.01,2013-09-26 15:29:00,
2013-09-26 11:35:00,73.0,38.0,29.03,ESE,112,0.0,0.0,28,0.00,,---,0.00,VWS V14.01,2013-09-26 15:35:00,
2013-09-26 11:37:00,76.3,25.3,29.15,East,98,3.1,6.9,15,0.00,,---,0.00,VWS V14.01,2013-09-26 15:37:00,
2013-09-26 11:40:00,73.8,37.7,29.03,East,80,0.0,0.0,27,0.00,,---,0.00,VWS V14.01,2013-09-26 15:40:00,
2013-09-26 11:43:00,76.6,25.6,29.15,East,84,0.0,4.5,15,0.00,,---,0.00,VWS V14.01,2013-09-26 15:43:00,
2013-09-26 11:45:00,73.9,36.9,29.03,NE,44,0.0,4.0,26,0.00,,---,0.00,VWS V14.01,2013-09-26 15:45:00,
2013-09-26 11:47:00,77.9,31.0,29.15,ENE,62,0.0,4.0,18,0.00,,---,0.00,VWS V14.01,2013-09-26 15:47:00,
2013-09-26 11:50:00,74.5,36.4,29.03,East,81,0.0,3.6,25,0.00,,---,0.00,VWS V14.01,2013-09-26 15:50:00,
2013-09-26 11:52:00,78.8,27.3,29.15,ESE,109,5.8,6.9,15,0.00,,---,0.00,VWS V14.01,2013-09-26 15:52:00,
2013-09-26 11:55:00,76.1,36.7,29.03,East,93,0.0,4.0,24,0.00,,---,0.00,VWS V14.01,2013-09-26 15:55:00,
2013-09-26 11:59:00,77.9,26.6,29.15,East,93,3.1,4.9,15,0.00,,---,0.00,VWS V14.01,2013-09-26 15:59:00,
2013-09-26 12:00:00,76.5,33.7,29.03,ENE,72,0.0,6.3,21,0.00,,---,0.00,VWS V14.01,2013-09-26 16:00:00,
2013-09-26 12:02:00,79.0,27.4,29.15,East,94,0.0,0.0,15,0.00,,---,0.00,VWS V14.01,2013-09-26 16:02:00,
2013-09-26 12:05:00,77.0,34.1,29.03,East,85,0.0,3.6,21,0.00,,---,0.00,VWS V14.01,2013-09-26 16:05:00,
2013-09-26 12:10:00,77.4,33.2,29.03,East,101,0.0,4.5,20,0.00,,---,0.00,VWS V14.01,2013-09-26 16:10:00,
2013-09-26 12:15:00,77.9,33.6,29.03,ENE,72,2.7,4.9,20,0.00,,---,0.00,VWS V14.01,2013-09-26 16:15:00,
2013-09-26 12:18:00,80.8,27.2,29.15,ESE,120,4.9,5.4,14,0.00,,---,0.00,VWS V14.01,2013-09-26 16:18:00,
2013-09-26 12:20:00,78.3,33.9,29.03,East,80,0.0,4.9,20,0.00,,---,0.00,VWS V14.01,2013-09-26 16:20:00,
2013-09-26 12:25:00,78.6,34.2,29.03,ENE,73,3.6,4.5,20,0.00,,---,0.00,VWS V14.01,2013-09-26 16:25:00,
2013-09-26 12:26:00,81.7,27.9,29.15,ENE,67,4.0,4.5,14,0.00,,---,0.00,VWS V14.01,2013-09-26 16:26:00,
2013-09-26 12:30:00,78.6,34.2,29.03,East,85,0.0,5.4,20,0.00,,---,0.00,VWS V14.01,2013-09-26 16:30:00,
2013-09-26 12:34:00,82.2,28.3,29.15,East,97,4.0,5.4,14,0.00,,---,0.00,VWS V14.01,2013-09-26 16:34:00,
2013-09-26 12:35:00,78.6,34.2,29.03,ENE,67,4.5,4.9,20,0.00,,---,0.00,VWS V14.01,2013-09-26 16:35:00,
2013-09-26 12:40:00,79.7,35.1,29.03,NNE,19,0.0,4.9,20,0.00,,---,0.00,VWS V14.01,2013-09-26 16:40:00,
2013-09-26 12:45:00,80.2,34.3,29.03,East,92,0.0,4.5,19,0.00,,---,0.00,VWS V14.01,2013-09-26 16:45:00,
2013-09-26 12:50:00,80.2,31.5,29.03,ESE,111,6.9,7.4,17,0.00,,---,0.00,VWS V14.01,2013-09-26 16:50:00,
2013-09-26 12:55:00,80.2,31.5,29.03,East,88,4.0,4.9,17,0.00,,---,0.00,VWS V14.01,2013-09-26 16:55:00,
2013-09-26 13:00:00,79.9,31.2,29.03,SE,125,6.3,6.3,17,0.00,,---,0.00,VWS V14.01,2013-09-26 17:00:00,
2013-09-26 13:05:00,80.6,31.8,29.03,ESE,108,3.1,3.1,17,0.00,,---,0.00,VWS V14.01,2013-09-26 17:05:00,
2013-09-26 13:07:00,82.6,28.6,29.12,SSE,149,3.1,6.7,14,0.00,,---,0.00,VWS V14.01,2013-09-26 17:07:00,
2013-09-26 13:10:00,82.2,35.9,29.03,ENE,71,2.7,5.4,19,0.00,,---,0.00,VWS V14.01,2013-09-26 17:10:00,
2013-09-26 13:11:00,82.6,28.6,29.12,SSE,159,2.7,4.0,14,0.00,,---,0.00,VWS V14.01,2013-09-26 17:11:00,
2013-09-26 13:15:00,82.9,32.2,29.03,ESE,108,4.5,5.4,16,0.00,,---,0.00,VWS V14.01,2013-09-26 17:15:00,
2013-09-26 13:21:00,81.5,27.8,29.00,ESE,123,0.0,4.9,14,0.00,,---,0.00,VWS V14.01,2013-09-26 17:21:00,
2013-09-26 13:25:00,84.0,27.9,29.12,East,79,0.0,0.0,13,0.00,,---,0.00,VWS V14.01,2013-09-26 17:25:00,
2013-09-26 13:26:00,80.1,26.6,29.00,ESE,122,6.3,8.7,14,0.00,,---,0.00,VWS V14.01,2013-09-26 17:26:00,
2013-09-26 13:30:00,83.1,29.0,29.12,North,351,3.1,3.6,14,0.00,,---,0.00,VWS V14.01,2013-09-26 17:30:00,
2013-09-26 13:31:00,79.2,30.6,29.00,East,83,5.8,7.4,17,0.00,,---,0.00,VWS V14.01,2013-09-26 17:31:00,
2013-09-26 13:32:00,82.2,28.3,29.12,NW,320,0.0,0.0,14,0.00,,---,0.00,VWS V14.01,2013-09-26 17:32:00,
2013-09-26 13:33:00,82.0,28.2,29.12,NW,325,0.0,0.0,14,0.00,,---,0.00,VWS V14.01,2013-09-26 17:33:00,
2013-09-26 13:36:00,80.1,35.4,29.00,ENE,68,5.4,5.4,20,0.00,,---,0.00,VWS V14.01,2013-09-26 17:36:00,
2013-09-26 13:41:00,81.3,32.4,29.00,East,82,0.0,4.5,17,0.00,,---,0.00,VWS V14.01,2013-09-26 17:41:00,
2013-09-26 13:44:00,82.4,28.5,29.12,ESE,103,0.0,0.0,14,0.00,,---,0.00,VWS V14.01,2013-09-26 17:44:00,
2013-09-26 13:46:00,79.2,27.6,29.00,ESE,121,6.7,11.6,15,0.00,,---,0.00,VWS V14.01,2013-09-26 17:46:00,
2013-09-26 13:47:00,83.8,27.8,29.12,SW,228,2.7,3.1,13,0.00,,---,0.00,VWS V14.01,2013-09-26 17:47:00,
2013-09-26 13:50:00,85.3,28.9,29.12,East,100,0.0,3.1,13,0.00,,---,0.00,VWS V14.01,2013-09-26 17:50:00,
2013-09-26 13:51:00,79.2,30.6,29.00,East,98,5.8,7.4,17,0.00,,---,0.00,VWS V14.01,2013-09-26 17:51:00,
2013-09-26 13:54:00,85.1,28.8,29.12,ESE,119,5.8,6.9,13,0.00,,---,0.00,VWS V14.01,2013-09-26 17:54:00,
2013-09-26 13:55:00,84.7,28.5,29.12,SE,142,0.0,5.8,13,0.00,,---,0.00,VWS V14.01,2013-09-26 17:55:00,
2013-09-26 13:56:00,80.1,31.4,29.00,ENE,64,3.1,5.8,17,0.00,,---,0.00,VWS V14.01,2013-09-26 17:56:00,
2013-09-26 14:01:00,81.5,32.5,29.00,NE,42,2.7,5.4,17,0.00,,---,0.00,VWS V14.01,2013-09-26 18:01:00,
2013-09-26 14:05:00,85.5,29.1,29.12,East,90,0.0,4.0,13,0.00,,---,0.00,VWS V14.01,2013-09-26 18:05:00,
2013-09-26 14:06:00,79.9,26.5,29.00,East,87,0.0,4.5,14,0.00,,---,0.00,VWS V14.01,2013-09-26 18:06:00,
2013-09-26 14:11:00,80.8,27.2,29.00,East,96,5.8,6.9,14,0.00,,---,0.00,VWS V14.01,2013-09-26 18:11:00,
2013-09-26 14:13:00,84.7,28.5,29.09,ESE,115,0.0,6.7,13,0.00,,---,0.00,VWS V14.01,2013-09-26 18:13:00,
2013-09-26 14:16:00,82.4,36.0,29.00,ENE,75,3.6,5.4,19,0.00,,---,0.00,VWS V14.01,2013-09-26 18:16:00,
2013-09-26 14:21:00,82.9,32.2,29.00,ENE,73,3.1,5.4,16,0.00,,---,0.00,VWS V14.01,2013-09-26 18:21:00,
2013-09-26 14:22:00,84.7,28.5,29.09,WNW,299,0.0,0.0,13,0.00,,---,0.00,VWS V14.01,2013-09-26 18:22:00,
2013-09-26 14:23:00,84.9,28.6,29.09,NE,48,0.0,0.0,13,0.00,,---,0.00,VWS V14.01,2013-09-26 18:23:00,
2013-09-26 14:26:00,83.5,27.5,29.00,East,94,5.8,6.9,13,0.00,,---,0.00,VWS V14.01,2013-09-26 18:26:00,
2013-09-26 14:31:00,81.7,27.9,29.00,SSE,148,4.5,5.8,14,0.00,,---,0.00,VWS V14.01,2013-09-26 18:31:00,
2013-09-26 14:33:00,87.1,30.3,29.09,ESE,106,0.0,0.0,13,0.00,,---,0.00,VWS V14.01,2013-09-26 18:33:00,
2013-09-26 14:36:00,82.8,32.0,29.00,WNW,287,3.6,4.0,16,0.00,,---,0.00,VWS V14.01,2013-09-26 18:36:00,
2013-09-26 14:41:00,82.0,28.2,29.00,SE,145,4.9,6.7,14,0.00,,---,0.00,VWS V14.01,2013-09-26 18:41:00,
2013-09-26 14:46:00,82.8,32.0,29.00,East,81,3.6,4.9,16,0.00,,---,0.00,VWS V14.01,2013-09-26 18:46:00,
2013-09-26 14:51:00,83.1,29.0,29.00,North,351,8.3,8.3,14,0.00,,---,0.00,VWS V14.01,2013-09-26 18:51:00,
2013-09-26 14:54:00,87.1,30.3,29.09,ENE,78,3.6,6.7,13,0.00,,---,0.00,VWS V14.01,2013-09-26 18:54:00,
2013-09-26 14:56:00,81.9,28.0,29.00,SE,131,3.1,4.5,14,0.00,,---,0.00,VWS V14.01,2013-09-26 18:56:00,
2013-09-26 14:57:00,86.9,30.2,29.09,SE,125,0.0,0.0,13,0.00,,---,0.00,VWS V14.01,2013-09-26 18:57:00,
2013-09-26 15:01:00,83.5,27.5,29.00,SSE,148,4.0,5.8,13,0.00,,---,0.00,VWS V14.01,2013-09-26 19:01:00,
2013-09-26 15:06:00,83.1,29.0,29.00,East,92,6.7,8.7,14,0.00,,---,0.00,VWS V14.01,2013-09-26 19:06:00,
2013-09-26 15:11:00,82.6,28.6,29.00,East,87,5.4,5.8,14,0.00,,---,0.00,VWS V14.01,2013-09-26 19:11:00,
2013-09-26 15:14:00,86.2,29.6,29.09,ENE,65,0.0,3.1,13,0.00,,---,0.00,VWS V14.01,2013-09-26 19:14:00,
2013-09-26 15:16:00,83.8,27.8,29.00,ENE,74,0.0,4.9,13,0.00,,---,0.00,VWS V14.01,2013-09-26 19:16:00,
2013-09-26 15:23:00,83.8,27.8,29.00,ENE,60,4.5,6.3,13,0.00,,---,0.00,VWS V14.01,2013-09-26 19:23:00,
2013-09-26 15:31:00,84.4,28.2,29.00,East,95,0.0,0.0,13,0.00,,---,0.00,VWS V14.01,2013-09-26 19:31:00,
2013-09-26 15:38:00,85.6,29.2,29.00,East,80,0.0,3.6,13,0.00,,---,0.00,VWS V14.01,2013-09-26 19:38:00,
2013-09-26 15:50:00,85.3,28.9,29.00,ESE,108,0.0,0.0,13,0.00,,---,0.00,VWS V14.01,2013-09-26 19:50:00,
2013-09-26 15:55:00,84.6,28.4,29.00,NW,307,0.0,2.7,13,0.00,,---,0.00,VWS V14.01,2013-09-26 19:55:00,
2013-09-26 16:01:00,84.6,28.4,29.00,SSW,204,0.0,0.0,13,0.00,,---,0.00,VWS V14.01,2013-09-26 20:01:00,
2013-09-26 16:07:00,84.4,28.2,29.00,NE,43,7.4,7.4,13,0.00,,---,0.00,VWS V14.01,2013-09-26 20:07:00,
2013-09-26 16:15:00,84.4,28.2,29.00,ENE,72,0.0,3.6,13,0.00,,---,0.00,VWS V14.01,2013-09-26 20:15:00,
2013-09-26 16:31:00,83.3,27.4,28.97,ENE,60,0.0,4.0,13,0.00,,---,0.00,VWS V14.01,2013-09-26 20:31:00,
2013-09-26 16:39:00,83.8,27.8,28.97,SE,133,0.0,0.0,13,0.00,,---,0.00,VWS V14.01,2013-09-26 20:39:00,
2013-09-26 16:44:00,83.8,27.8,28.97,ENE,78,0.0,0.0,13,0.00,,---,0.00,VWS V14.01,2013-09-26 20:44:00,
2013-09-26 16:49:00,83.7,27.7,29.00,ENE,71,3.1,5.4,13,0.00,,---,0.00,VWS V14.01,2013-09-26 20:49:00,
2013-09-26 16:54:00,83.8,27.8,29.00,ENE,76,0.0,0.0,13,0.00,,---,0.00,VWS V14.01,2013-09-26 20:54:00,
2013-09-26 16:59:00,83.5,27.5,29.00,North,9,0.0,2.7,13,0.00,,---,0.00,VWS V14.01,2013-09-26 20:59:00,
2013-09-26 17:04:00,83.7,27.7,29.00,East,84,0.0,0.0,13,0.00,,---,0.00,VWS V14.01,2013-09-26 21:04:00,
2013-09-26 17:09:00,83.1,29.0,29.00,NE,49,0.0,0.0,14,0.00,,---,0.00,VWS V14.01,2013-09-26 21:09:00,
2013-09-26 17:14:00,82.0,28.2,29.00,SE,131,3.6,5.4,14,0.00,,---,0.00,VWS V14.01,2013-09-26 21:14:00,
2013-09-26 17:19:00,81.3,27.6,28.97,ENE,74,3.6,5.4,14,0.00,,---,0.00,VWS V14.01,2013-09-26 21:19:00,
2013-09-26 17:24:00,81.9,28.0,28.97,East,80,5.4,5.4,14,0.00,,---,0.00,VWS V14.01,2013-09-26 21:24:00,
2013-09-26 17:29:00,81.5,27.8,28.97,East,82,0.0,4.0,14,0.00,,---,0.00,VWS V14.01,2013-09-26 21:29:00,
2013-09-26 17:34:00,81.1,27.5,29.00,ESE,109,0.0,4.5,14,0.00,,---,0.00,VWS V14.01,2013-09-26 21:34:00,
2013-09-26 17:39:00,80.8,27.2,29.00,SE,128,4.0,4.9,14,0.00,,---,0.00,VWS V14.01,2013-09-26 21:39:00,
2013-09-26 17:44:00,80.1,26.6,29.00,ENE,70,3.6,4.9,14,0.00,,---,0.00,VWS V14.01,2013-09-26 21:44:00,
2013-09-26 17:49:00,80.2,26.8,29.00,ESE,110,0.0,4.0,14,0.00,,---,0.00,VWS V14.01,2013-09-26 21:49:00,
2013-09-26 17:54:00,80.2,26.8,29.00,East,88,0.0,0.0,14,0.00,,---,0.00,VWS V14.01,2013-09-26 21:54:00,
2013-09-26 17:59:00,80.1,26.6,29.00,ENE,76,4.5,4.5,14,0.00,,---,0.00,VWS V14.01,2013-09-26 21:59:00,
2013-09-26 18:04:00,79.7,28.0,29.00,SE,127,4.9,6.9,15,0.00,,---,0.00,VWS V14.01,2013-09-26 22:04:00,
2013-09-26 18:09:00,79.3,27.7,29.00,ESE,104,4.9,4.9,15,0.00,,---,0.00,VWS V14.01,2013-09-26 22:09:00,
2013-09-26 18:15:00,78.6,27.1,29.00,ENE,71,0.0,4.5,15,0.00,,---,0.00,VWS V14.01,2013-09-26 22:15:00,
2013-09-26 18:20:00,78.4,27.0,29.00,ENE,75,5.4,5.4,15,0.00,,---,0.00,VWS V14.01,2013-09-26 22:20:00,
2013-09-26 18:25:00,78.1,26.7,29.00,East,85,0.0,0.0,15,0.00,,---,0.00,VWS V14.01,2013-09-26 22:25:00,
2013-09-26 18:30:00,77.7,26.4,29.00,East,85,0.0,0.0,15,0.00,,---,0.00,VWS V14.01,2013-09-26 22:30:00,
2013-09-26 18:35:00,77.2,26.0,29.00,ENE,66,2.7,3.6,15,0.00,,---,0.00,VWS V14.01,2013-09-26 22:35:00,
2013-09-26 18:40:00,76.6,25.6,29.00,NNE,29,0.0,0.0,15,0.00,,---,0.00,VWS V14.01,2013-09-26 22:40:00,
2013-09-26 18:46:00,75.4,24.6,29.00,ENE,69,0.0,0.0,15,0.00,,---,0.00,VWS V14.01,2013-09-26 22:46:00,
2013-09-26 18:51:00,74.3,23.7,29.00,ESE,107,0.0,0.0,15,0.00,,---,0.00,VWS V14.01,2013-09-26 22:51:00,
2013-09-26 18:56:00,73.4,24.5,29.00,ESE,107,0.0,2.7,16,0.00,,---,0.00,VWS V14.01,2013-09-26 22:56:00,
2013-09-26 19:01:00,72.9,24.1,29.00,East,100,0.0,0.0,16,0.00,,---,0.00,VWS V14.01,2013-09-26 23:01:00,
2013-09-26 19:06:00,72.3,27.8,29.00,East,100,0.0,0.0,19,0.00,,---,0.00,VWS V14.01,2013-09-26 23:06:00,
2013-09-26 19:11:00,71.6,27.2,29.00,East,100,0.0,0.0,19,0.00,,---,0.00,VWS V14.01,2013-09-26 23:11:00,
2013-09-26 19:16:00,71.2,29.3,29.00,East,100,0.0,0.0,21,0.00,,---,0.00,VWS V14.01,2013-09-26 23:16:00,
2013-09-26 19:21:00,70.7,28.9,29.00,East,100,0.0,0.0,21,0.00,,---,0.00,VWS V14.01,2013-09-26 23:21:00,
2013-09-26 19:26:00,70.2,29.6,29.00,East,100,0.0,0.0,22,0.00,,---,0.00,VWS V14.01,2013-09-26 23:26:00,
2013-09-26 19:31:00,69.6,29.1,29.00,East,100,0.0,0.0,22,0.00,,---,0.00,VWS V14.01,2013-09-26 23:31:00,
2013-09-26 19:36:00,69.1,28.7,29.00,East,100,0.0,0.0,22,0.00,,---,0.00,VWS V14.01,2013-09-26 23:36:00,
2013-09-26 19:41:00,68.5,28.2,29.00,East,100,0.0,0.0,22,0.00,,---,0.00,VWS V14.01,2013-09-26 23:41:00,
2013-09-26 19:46:00,68.2,29.0,29.00,East,100,0.0,0.0,23,0.00,,---,0.00,VWS V14.01,2013-09-26 23:46:00,
2013-09-26 19:51:00,67.6,28.5,29.00,East,100,0.0,0.0,23,0.00,,---,0.00,VWS V14.01,2013-09-26 23:51:00,
2013-09-26 19:56:00,67.3,28.2,29.00,East,100,0.0,0.0,23,0.00,,---,0.00,VWS V14.01,2013-09-26 23:56:00,
2013-09-26 20:01:00,66.7,28.8,29.00,East,100,0.0,0.0,24,0.00,,---,0.00,VWS V14.01,2013-09-27 00:01:00,
2013-09-26 20:10:00,66.0,28.2,29.00,East,100,0.0,0.0,24,0.00,,---,0.00,VWS V14.01,2013-09-27 00:10:00,
2013-09-26 20:15:00,65.7,28.9,29.00,East,100,0.0,0.0,25,0.00,,---,0.00,VWS V14.01,2013-09-27 00:15:00,
2013-09-26 20:21:00,65.3,29.6,29.00,East,100,0.0,0.0,26,0.00,,---,0.00,VWS V14.01,2013-09-27 00:21:00,
2013-09-26 20:26:00,64.8,30.0,29.00,East,100,0.0,0.0,27,0.00,,---,0.00,VWS V14.01,2013-09-27 00:26:00,
2013-09-26 20:31:00,64.4,30.6,29.00,East,100,0.0,0.0,28,0.00,,---,0.00,VWS V14.01,2013-09-27 00:31:00,
2013-09-26 20:36:00,64.2,32.2,29.00,East,100,0.0,0.0,30,0.00,,---,0.00,VWS V14.01,2013-09-27 00:36:00,
2013-09-26 20:41:00,63.9,31.9,29.00,East,100,0.0,0.0,30,0.00,,---,0.00,VWS V14.01,2013-09-27 00:41:00,
2013-09-26 20:46:00,63.5,32.3,29.03,East,100,0.0,0.0,31,0.00,,---,0.00,VWS V14.01,2013-09-27 00:46:00,
2013-09-26 20:51:00,63.1,33.6,29.03,East,100,0.0,0.0,33,0.00,,---,0.00,VWS V14.01,2013-09-27 00:51:00,
2013-09-26 20:56:00,62.6,33.1,29.03,East,100,0.0,0.0,33,0.00,,---,0.00,VWS V14.01,2013-09-27 00:56:00,
2013-09-26 21:01:00,62.4,33.7,29.03,East,100,0.0,0.0,34,0.00,,---,0.00,VWS V14.01,2013-09-27 01:01:00,
2013-09-26 21:06:00,62.2,33.5,29.03,East,100,0.0,0.0,34,0.00,,---,0.00,VWS V14.01,2013-09-27 01:06:00,
2013-09-26 21:12:00,61.9,33.2,29.03,East,100,0.0,0.0,34,0.00,,---,0.00,VWS V14.01,2013-09-27 01:12:00,
2013-09-26 21:17:00,61.5,33.6,29.03,East,100,0.0,0.0,35,0.00,,---,0.00,VWS V14.01,2013-09-27 01:17:00,
2013-09-26 21:22:00,61.3,33.5,29.03,East,100,0.0,0.0,35,0.00,,---,0.00,VWS V14.01,2013-09-27 01:22:00,
2013-09-26 21:27:00,61.2,34.0,29.03,East,100,0.0,0.0,36,0.00,,---,0.00,VWS V14.01,2013-09-27 01:27:00,
2013-09-26 21:32:00,61.0,33.9,29.03,East,100,0.0,0.0,36,0.00,,---,0.00,VWS V14.01,2013-09-27 01:32:00,
2013-09-26 21:37:00,60.8,33.7,29.03,East,100,0.0,0.0,36,0.00,,---,0.00,VWS V14.01,2013-09-27 01:37:00,
2013-09-26 21:42:00,60.6,34.2,29.03,East,100,0.0,0.0,37,0.00,,---,0.00,VWS V14.01,2013-09-27 01:42:00,
2013-09-26 21:47:00,60.4,34.1,29.03,East,100,0.0,0.0,37,0.00,,---,0.00,VWS V14.01,2013-09-27 01:47:00,
2013-09-26 21:52:00,60.3,34.6,29.03,East,100,0.0,0.0,38,0.00,,---,0.00,VWS V14.01,2013-09-27 01:52:00,
2013-09-26 21:57:00,60.1,34.4,29.03,East,100,0.0,0.0,38,0.00,,---,0.00,VWS V14.01,2013-09-27 01:57:00,
2013-09-26 22:02:00,59.9,34.9,29.03,East,100,0.0,0.0,39,0.00,,---,0.00,VWS V14.01,2013-09-27 02:02:00,
2013-09-26 22:07:00,60.6,34.9,29.03,East,80,0.0,4.9,38,0.00,,---,0.00,VWS V14.01,2013-09-27 02:07:00,
2013-09-26 22:12:00,61.5,35.0,29.03,ENE,66,4.5,4.5,37,0.00,,---,0.00,VWS V14.01,2013-09-27 02:12:00,
2013-09-26 22:17:00,61.9,34.7,29.03,East,89,0.0,4.5,36,0.00,,---,0.00,VWS V14.01,2013-09-27 02:17:00,
2013-09-26 22:22:00,61.9,34.7,29.03,ENE,78,3.6,5.4,36,0.00,,---,0.00,VWS V14.01,2013-09-27 02:22:00,
2013-09-26 22:27:00,62.2,35.0,29.03,ENE,72,3.6,4.5,36,0.00,,---,0.00,VWS V14.01,2013-09-27 02:27:00,
2013-09-26 22:32:00,62.2,35.0,29.03,East,81,4.5,4.9,36,0.00,,---,0.00,VWS V14.01,2013-09-27 02:32:00,
2013-09-26 22:37:00,62.2,35.0,29.03,East,101,4.9,5.4,36,0.00,,---,0.00,VWS V14.01,2013-09-27 02:37:00,
2013-09-26 22:42:00,62.2,35.0,29.03,ENE,71,4.9,4.9,36,0.00,,---,0.00,VWS V14.01,2013-09-27 02:42:00,
2013-09-26 22:47:00,61.9,35.3,29.03,ENE,70,0.0,5.4,37,0.00,,---,0.00,VWS V14.01,2013-09-27 02:47:00,
2013-09-26 22:52:00,61.9,35.3,29.03,East,87,3.1,4.9,37,0.00,,---,0.00,VWS V14.01,2013-09-27 02:52:00,
2013-09-26 22:57:00,61.5,35.7,29.03,ENE,78,3.6,5.4,38,0.00,,---,0.00,VWS V14.01,2013-09-27 02:57:00,
2013-09-26 23:02:00,61.3,36.2,29.06,ENE,75,0.0,4.9,39,0.00,,---,0.00,VWS V14.01,2013-09-27 03:02:00,
2013-09-26 23:07:00,61.0,36.5,29.06,NE,54,4.5,5.4,40,0.00,,---,0.00,VWS V14.01,2013-09-27 03:07:00,
2013-09-26 23:12:00,60.8,36.3,29.06,ENE,68,2.7,4.0,40,0.00,,---,0.00,VWS V14.01,2013-09-27 03:12:00,
2013-09-26 23:17:00,60.6,36.8,29.03,East,86,3.1,5.4,41,0.00,,---,0.00,VWS V14.01,2013-09-27 03:17:00,
2013-09-26 23:22:00,60.4,37.3,29.03,ENE,67,5.4,5.4,42,0.00,,---,0.00,VWS V14.01,2013-09-27 03:22:00,
2013-09-26 23:27:00,60.3,37.7,29.03,ENE,76,4.5,4.5,43,0.00,,---,0.00,VWS V14.01,2013-09-27 03:27:00,
2013-09-26 23:32:00,60.1,38.1,29.06,ENE,69,2.7,3.6,44,0.00,,---,0.00,VWS V14.01,2013-09-27 03:32:00,
2013-09-26 23:37:00,59.7,38.4,29.06,East,95,2.7,4.0,45,0.00,,---,0.00,VWS V14.01,2013-09-27 03:37:00,
2013-09-26 23:42:00,59.5,38.2,29.06,East,81,0.0,0.0,45,0.00,,---,0.00,VWS V14.01,2013-09-27 03:42:00,
2013-09-26 23:47:00,59.4,38.6,29.06,East,80,3.1,4.9,46,0.00,,---,0.00,VWS V14.01,2013-09-27 03:47:00,
2013-09-26 23:53:00,59.2,38.4,29.06,East,80,2.7,4.0,46,0.00,,---,0.00,VWS V14.01,2013-09-27 03:53:00,
2013-09-26 23:57:00,59.2,46.2,29.09,ENE,76,0.0,4.0,62,0.00,,---,0.00,VWS V14.01,2013-09-27 03:57:00,
2013-09-26 23:58:00,58.8,38.1,29.06,ESE,109,0.0,0.0,46,0.00,,---,0.00,VWS V14.01,2013-09-27 03:58:00,
2013-09-26 23:59:00,59.0,46.0,29.09,ESE,121,2.7,4.0,62,0.00,,---,0.00,VWS V14.01,2013-09-27 03:59:00,